Location: Newark
(48.8481°N, 20.9372°E)
Time: 22:05:27
(UTC+00:00)

N. Korean satellite - Visible Passes

Search period start: 19 January 2020 00:00
Search period end: 29 January 2020 00:00
Orbit: 454 x 508 km, 97.2° (Epoch: 19 January)

Date Brightness Start Highest point End Pass type
(mag) Time Alt. Az. Time Alt. Az. Time Alt. Az.
19 Jan 9.4 03:36:45 10° NE 03:39:14 18° E 03:41:43 10° SE visible
19 Jan 7.1 05:09:31 10° N 05:12:44 35° WNW 05:16:00 10° SW visible
19 Jan 7.5 15:48:25 10° S 15:51:46 51° W 15:55:08 10° NNW visible
20 Jan 6.4 04:43:49 10° N 04:47:19 72° WNW 04:50:52 10° SSW visible
21 Jan 7.2 04:18:20 10° NNE 04:21:49 55° E 04:25:19 10° S visible
21 Jan 9.7 16:32:06 10° SW 16:34:22 17° W 16:36:39 10° NW visible
22 Jan 8.7 03:53:08 10° NE 03:56:13 27° E 03:59:20 10° SSE visible
22 Jan 7.6 05:26:40 10° NNW 05:29:32 24° WNW 05:32:26 10° WSW visible
22 Jan 8.6 16:05:37 10° SSW 16:08:42 31° W 16:11:49 10° NNW visible
23 Jan 9.7 03:28:27 10° NE 03:30:33 15° E 03:32:39 10° SE visible
23 Jan 6.8 05:00:46 10° N 05:04:10 44° WNW 05:07:36 10° SW visible
24 Jan 6.5 04:35:09 10° NNE 04:38:42 89° ENE 04:42:19 10° SSW visible
24 Jan 10.2 16:50:34 10° WSW 16:51:24 11° W 16:52:15 10° WNW visible
25 Jan 7.8 04:09:45 10° NNE 04:13:10 43° E 04:16:38 10° S visible
25 Jan 9.5 16:23:03 10° SW 16:25:40 20° W 16:28:18 10° NW visible
26 Jan 9.1 03:44:39 10° NE 03:47:33 23° E 03:50:28 10° SSE visible
26 Jan 7.4 05:17:50 10° N 05:20:57 29° WNW 05:24:07 10° SW visible
26 Jan 8.1 15:56:46 10° S 16:00:01 40° W 16:03:17 10° NNW visible
27 Jan 10.0 03:20:17 10° ENE 03:21:50 12° E 03:23:23 10° ESE visible
27 Jan 6.6 04:52:03 10° N 04:55:33 56° WNW 04:59:06 10° SSW visible
28 Jan 6.8 04:26:29 10° NNE 04:30:04 71° ESE 04:33:42 10° S visible
28 Jan 9.9 16:40:53 10° WSW 16:42:39 13° W 16:44:25 10° WNW visible
